Location: Iesi
(43.5167°N, 13.2333°E)
Time: 17:05:48
(UTC+00:00)

SPOT 1/Viking Rocket - Pass Details

Date: 08 August 2020
Orbit: 776 x 795 km, 98.5° (Epoch: 22 September)

Event Time Altitude Azimuth Distance (km) Brightness Sun altitude
Exits shadow 20:39:53 34° 185° (S) 1,283 4.3 -21.1°
Maximum altitude 20:42:08 68° 258° (WSW) 858 3.8 -21.4°
Drops below altitude 10° 20:47:22 10° 341° (NNW) 2,373 7.0 -22.0°
Sets 20:49:44 0° 344° (NNW) 3,308 8.0 -22.3°
